This is the latest recevied weather packets stored in our database for station/object WD7OO. If no packets are shown the sender has not sent any weather packets the latest 10 day(s).
| Time | Temp. | Humidity | Pressure | Rain* | Wind** | Luminosity | Snow |
|---|---|---|---|---|---|---|---|
| 1787793223 | 20° C | 95% | 1012.9 hPa | 0 mm | - | 0 W/m² | - |
| 1787792917 | 20° C | 94% | 1012.8 hPa | 0 mm | - | 0 W/m² | - |
| 1787792612 | 20° C | 94% | 1012.7 hPa | 0 mm | - | 0 W/m² | - |
| 1787792309 | 20.56° C | 94% | 1012.7 hPa | 0 mm | - | 0 W/m² | - |
| 1787792008 | 20.56° C | 93% | 1012.7 hPa | 0 mm | - | 0 W/m² | - |
| 1787791707 | 20.56° C | 93% | 1012.9 hPa | 0 mm | - | 0 W/m² | - |
| 1787791403 | 20.56° C | 92% | 1012.7 hPa | 0 mm | - | 0 W/m² | - |
| 1787791098 | 21.11° C | 92% | 1012.6 hPa | 0 mm | - | 0 W/m² | - |
| 1787790794 | 21.11° C | 92% | 1012.6 hPa | 0 mm | - | 0 W/m² | - |
| 1787790493 | 21.67° C | 91% | 1012.6 hPa | 0 mm | - | 1 W/m² | - |
| 1787790189 | 21.67° C | 90% | 1012.7 hPa | 0 mm | - | 3 W/m² | - |
| 1787789885 | 21.67° C | 89% | 1012.7 hPa | 0 mm | - | 5 W/m² | - |
| 1787789584 | 22.22° C | 88% | 1012.7 hPa | 0 mm | - | 9 W/m² | - |
| 1787789284 | 22.22° C | 87% | 1012.7 hPa | 0 mm | - | 12 W/m² | - |
| 1787788979 | 22.78° C | 86% | 1012.6 hPa | 0 mm | - | 16 W/m² | - |
| 1787788676 | 22.78° C | 84% | 1012.6 hPa | 0 mm | - | 20 W/m² | - |
| 1787788371 | 23.33° C | 83% | 1012.8 hPa | 0 mm | - | 24 W/m² | - |
| 1787788066 | 23.33° C | 83% | 1012.7 hPa | 0 mm | - | 28 W/m² | - |
| 1787787761 | 23.89° C | 82% | 1012.5 hPa | 0 mm | - | 31 W/m² | - |
| 1787787460 | 23.89° C | 80% | 1012.6 hPa | 0 mm | - | 34 W/m² | - |
| 1787787160 | 23.89° C | 80% | 1012.5 hPa | 0 mm | - | 37 W/m² | - |
| 1787786854 | 24.44° C | 78% | 1012.5 hPa | 0 mm | - | 42 W/m² | - |
| 1787786549 | 24.44° C | 76% | 1012.6 hPa | 0 mm | - | 44 W/m² | - |
| 1787786245 | 25° C | 75% | 1012.3 hPa | 0 mm | - | 52 W/m² | - |
| 1787785940 | 25° C | 73% | 1012.3 hPa | 0 mm | - | 55 W/m² | - |
* Rain latest hour (hover to see other rain measurements)
** Current wind speed in m/s (hover to see current wind gust speed)